Year,Month,Day,Hour,Minute,Value (Times are PST for temperature in C)
2015,07,05,00,00,17.80
2015,07,05,00,01,17.70
2015,07,05,00,02,17.70
2015,07,05,00,03,17.60
2015,07,05,00,04,17.60
2015,07,05,00,05,17.50
2015,07,05,00,06,17.50
2015,07,05,00,07,17.40
2015,07,05,00,08,17.40
2015,07,05,00,09,17.30
2015,07,05,00,10,17.30
2015,07,05,00,11,17.30
2015,07,05,00,12,17.30
2015,07,05,00,13,17.30
2015,07,05,00,14,17.30
2015,07,05,00,15,17.30
2015,07,05,00,16,17.30
2015,07,05,00,17,17.20
2015,07,05,00,18,17.20
2015,07,05,00,19,17.20
2015,07,05,00,20,17.10
2015,07,05,00,21,17.10
2015,07,05,00,22,17.10
2015,07,05,00,23,17.00
2015,07,05,00,24,17.00
2015,07,05,00,25,16.90
2015,07,05,00,26,16.90
2015,07,05,00,27,16.90
2015,07,05,00,28,16.80
2015,07,05,00,29,16.80
2015,07,05,00,30,16.80
2015,07,05,00,31,16.80
2015,07,05,00,32,16.80
2015,07,05,00,33,16.80
2015,07,05,00,34,16.80
2015,07,05,00,35,16.80
2015,07,05,00,36,16.80
2015,07,05,00,37,16.80
2015,07,05,00,38,16.80
2015,07,05,00,39,16.80
2015,07,05,00,40,16.80
2015,07,05,00,41,16.70
2015,07,05,00,42,16.70
2015,07,05,00,43,16.70
2015,07,05,00,44,16.70
2015,07,05,00,45,16.60
2015,07,05,00,46,16.60
2015,07,05,00,47,16.60
2015,07,05,00,48,16.50
2015,07,05,00,49,16.50
2015,07,05,00,50,16.50
2015,07,05,00,51,16.50
2015,07,05,00,52,16.40
2015,07,05,00,53,16.40
2015,07,05,00,54,16.40
2015,07,05,00,55,16.40
2015,07,05,00,56,16.40
2015,07,05,00,57,16.30
2015,07,05,00,58,16.30
2015,07,05,00,59,16.30
2015,07,05,01,00,16.30
2015,07,05,01,01,16.30
2015,07,05,01,02,16.40
2015,07,05,01,03,16.40
2015,07,05,01,04,16.40
2015,07,05,01,05,16.40
2015,07,05,01,06,16.40
2015,07,05,01,07,16.30
2015,07,05,01,08,16.30
2015,07,05,01,09,16.30
2015,07,05,01,10,16.30
2015,07,05,01,11,16.30
2015,07,05,01,12,16.30
2015,07,05,01,13,16.20
2015,07,05,01,14,16.20
2015,07,05,01,15,16.20
2015,07,05,01,16,16.20
2015,07,05,01,17,16.10
2015,07,05,01,18,16.10
2015,07,05,01,19,16.10
2015,07,05,01,20,16.10
2015,07,05,01,21,16.10
2015,07,05,01,22,16.10
2015,07,05,01,23,16.10
2015,07,05,01,24,16.10
2015,07,05,01,25,16.00
2015,07,05,01,26,16.00
2015,07,05,01,27,16.00
2015,07,05,01,28,16.00
2015,07,05,01,29,15.90
2015,07,05,01,30,15.90
2015,07,05,01,31,15.90
2015,07,05,01,32,15.90
2015,07,05,01,33,15.90
2015,07,05,01,34,15.90
2015,07,05,01,35,15.90
2015,07,05,01,36,15.90
2015,07,05,01,37,15.90
2015,07,05,01,38,15.90
2015,07,05,01,39,15.90
2015,07,05,01,40,15.90
2015,07,05,01,41,15.90
2015,07,05,01,42,15.90
2015,07,05,01,43,15.80
2015,07,05,01,44,15.80
2015,07,05,01,45,15.80
2015,07,05,01,46,15.80
2015,07,05,01,47,15.80
2015,07,05,01,48,15.90
2015,07,05,01,49,15.90
2015,07,05,01,50,15.90
2015,07,05,01,51,15.90
2015,07,05,01,52,15.90
2015,07,05,01,53,15.90
2015,07,05,01,54,15.90
2015,07,05,01,55,15.80
2015,07,05,01,56,15.80
2015,07,05,01,57,15.80
2015,07,05,01,58,15.80
2015,07,05,01,59,15.80
2015,07,05,02,00,15.80
2015,07,05,02,01,15.80
2015,07,05,02,02,15.80
2015,07,05,02,03,15.80
2015,07,05,02,04,15.80
2015,07,05,02,05,15.80
2015,07,05,02,06,15.80
2015,07,05,02,07,15.80
2015,07,05,02,08,15.80
2015,07,05,02,09,15.80
2015,07,05,02,10,15.80
2015,07,05,02,11,15.80
2015,07,05,02,12,15.80
2015,07,05,02,13,15.80
2015,07,05,02,14,15.80
2015,07,05,02,15,15.80
2015,07,05,02,16,15.80
2015,07,05,02,17,15.80
2015,07,05,02,18,15.80
2015,07,05,02,19,15.70
2015,07,05,02,20,15.70
2015,07,05,02,21,15.70
2015,07,05,02,22,15.70
2015,07,05,02,23,15.60
2015,07,05,02,24,15.60
2015,07,05,02,25,15.60
2015,07,05,02,26,15.60
2015,07,05,02,27,15.60
2015,07,05,02,28,15.60
2015,07,05,02,29,15.50
2015,07,05,02,30,15.50
2015,07,05,02,31,15.50
2015,07,05,02,32,15.50
2015,07,05,02,33,15.50
2015,07,05,02,34,15.50
2015,07,05,02,35,15.40
2015,07,05,02,36,15.40
2015,07,05,02,37,15.40
2015,07,05,02,38,15.40
2015,07,05,02,39,15.40
2015,07,05,02,40,15.40
2015,07,05,02,41,15.40
2015,07,05,02,42,15.40
2015,07,05,02,43,15.40
2015,07,05,02,44,15.40
2015,07,05,02,45,15.40
2015,07,05,02,46,15.50
2015,07,05,02,47,15.50
2015,07,05,02,48,15.60
2015,07,05,02,49,15.60
2015,07,05,02,50,15.60
2015,07,05,02,51,15.70
2015,07,05,02,52,15.70
2015,07,05,02,53,15.70
2015,07,05,02,54,15.70
2015,07,05,02,55,15.80
2015,07,05,02,56,15.80
2015,07,05,02,57,15.80
2015,07,05,02,58,15.80
2015,07,05,02,59,15.80
2015,07,05,03,00,15.80
2015,07,05,03,01,15.80
2015,07,05,03,02,15.80
2015,07,05,03,03,15.80
2015,07,05,03,04,15.80
2015,07,05,03,05,15.80
2015,07,05,03,06,15.80
2015,07,05,03,07,15.80
2015,07,05,03,08,15.80
2015,07,05,03,09,15.80
2015,07,05,03,10,15.80
2015,07,05,03,11,15.80
2015,07,05,03,12,15.70
2015,07,05,03,13,15.70
2015,07,05,03,14,15.70
2015,07,05,03,15,15.70
2015,07,05,03,16,15.70
2015,07,05,03,17,15.70
2015,07,05,03,18,15.70
2015,07,05,03,19,15.70
2015,07,05,03,20,15.70
2015,07,05,03,21,15.70
2015,07,05,03,22,15.70
2015,07,05,03,23,15.70
2015,07,05,03,24,15.70
2015,07,05,03,25,15.70
2015,07,05,03,26,15.70
2015,07,05,03,27,15.70
2015,07,05,03,28,15.70
2015,07,05,03,29,15.70
2015,07,05,03,30,15.70
2015,07,05,03,31,15.70
2015,07,05,03,32,15.70
2015,07,05,03,33,15.70
2015,07,05,03,34,15.70
2015,07,05,03,35,15.70
2015,07,05,03,36,15.60
2015,07,05,03,37,15.60
2015,07,05,03,38,15.60
2015,07,05,03,39,15.60
2015,07,05,03,40,15.60
2015,07,05,03,41,15.60
2015,07,05,03,42,15.60
2015,07,05,03,43,15.60
2015,07,05,03,44,15.60
2015,07,05,03,45,15.60
2015,07,05,03,49,15.50
2015,07,05,03,50,15.50
2015,07,05,03,51,15.50
2015,07,05,03,52,15.50
2015,07,05,03,53,15.50
2015,07,05,03,54,15.40
2015,07,05,03,55,15.40
2015,07,05,03,56,15.40
2015,07,05,03,57,15.40
2015,07,05,03,58,15.40
2015,07,05,03,59,15.40
2015,07,05,04,00,15.40
2015,07,05,04,01,15.30
2015,07,05,04,02,15.30
2015,07,05,04,03,15.30
2015,07,05,04,04,15.30
2015,07,05,04,05,15.30
2015,07,05,04,06,15.30
2015,07,05,04,07,15.30
2015,07,05,04,08,15.20
2015,07,05,04,09,15.20
2015,07,05,04,10,15.20
2015,07,05,04,11,15.20
2015,07,05,04,12,15.20
2015,07,05,04,13,15.20
2015,07,05,04,14,15.20
2015,07,05,04,15,15.20
2015,07,05,04,16,15.20
2015,07,05,04,17,15.20
2015,07,05,04,18,15.20
2015,07,05,04,19,15.20
2015,07,05,04,20,15.20
2015,07,05,04,21,15.20
2015,07,05,04,22,15.20
2015,07,05,04,23,15.20
2015,07,05,04,24,15.20
2015,07,05,04,25,15.20
2015,07,05,04,26,15.20
2015,07,05,04,27,15.30
2015,07,05,04,28,15.30
2015,07,05,04,29,15.30
2015,07,05,04,30,15.30
2015,07,05,04,31,15.20
2015,07,05,04,32,15.20
2015,07,05,04,33,15.20
2015,07,05,04,34,15.20
2015,07,05,04,35,15.20
2015,07,05,04,36,15.20
2015,07,05,04,37,15.20
2015,07,05,04,38,15.20
2015,07,05,04,39,15.10
2015,07,05,04,40,15.10
2015,07,05,04,41,15.10
2015,07,05,04,42,15.10
2015,07,05,04,43,15.00
2015,07,05,04,44,15.00
2015,07,05,04,45,15.00
2015,07,05,04,46,15.00
2015,07,05,04,47,15.00
2015,07,05,04,48,15.00
2015,07,05,04,49,15.00
2015,07,05,04,50,15.00
2015,07,05,04,51,15.00
2015,07,05,04,52,15.00
2015,07,05,04,53,15.00
2015,07,05,04,54,15.00
2015,07,05,04,55,15.00
2015,07,05,04,56,15.00
2015,07,05,04,57,15.00
2015,07,05,04,58,15.00
2015,07,05,04,59,15.00
2015,07,05,05,00,15.00
2015,07,05,05,01,15.00
2015,07,05,05,02,15.00
2015,07,05,05,03,15.00
2015,07,05,05,04,15.00
2015,07,05,05,05,15.00
2015,07,05,05,06,15.00
2015,07,05,05,07,15.00
2015,07,05,05,08,15.00
2015,07,05,05,09,15.00
2015,07,05,05,10,15.00
2015,07,05,05,11,15.00
2015,07,05,05,12,15.00
2015,07,05,05,13,15.00
2015,07,05,05,14,15.00
2015,07,05,05,15,15.00
2015,07,05,05,16,15.00
2015,07,05,05,17,15.00
2015,07,05,05,18,15.00
2015,07,05,05,19,15.00
2015,07,05,05,20,15.00
2015,07,05,05,21,15.00
2015,07,05,05,22,15.00
2015,07,05,05,23,15.10
2015,07,05,05,24,15.10
2015,07,05,05,25,15.10
2015,07,05,05,26,15.20
2015,07,05,05,27,15.20
2015,07,05,05,28,15.20
2015,07,05,05,29,15.20
2015,07,05,05,30,15.20
2015,07,05,05,31,15.20
2015,07,05,05,32,15.20
2015,07,05,05,33,15.20
2015,07,05,05,34,15.10
2015,07,05,05,35,15.10
2015,07,05,05,36,15.10
2015,07,05,05,37,15.10
2015,07,05,05,38,15.00
2015,07,05,05,39,15.00
2015,07,05,05,40,15.00
2015,07,05,05,41,15.00
2015,07,05,05,42,15.00
2015,07,05,05,43,15.00
2015,07,05,05,44,15.00
2015,07,05,05,45,15.00
2015,07,05,05,46,15.00
2015,07,05,05,47,15.00
2015,07,05,05,48,15.00
2015,07,05,05,49,15.00
2015,07,05,05,50,15.00
2015,07,05,05,51,15.00
2015,07,05,05,52,15.00
2015,07,05,05,53,15.10
2015,07,05,05,54,15.00
2015,07,05,05,55,15.00
2015,07,05,05,56,15.00
2015,07,05,05,57,15.00
2015,07,05,05,58,15.00
2015,07,05,05,59,15.00
2015,07,05,06,00,15.00
2015,07,05,06,01,15.00
2015,07,05,06,02,15.00
2015,07,05,06,03,15.00
2015,07,05,06,04,15.00
2015,07,05,06,05,15.00
2015,07,05,06,06,15.00
2015,07,05,06,07,15.00
2015,07,05,06,08,15.00
2015,07,05,06,09,15.00
2015,07,05,06,10,15.00
2015,07,05,06,11,15.00
2015,07,05,06,12,15.00
2015,07,05,06,13,15.00
2015,07,05,06,14,15.00
2015,07,05,06,15,15.00
2015,07,05,06,16,15.00
2015,07,05,06,17,15.00
2015,07,05,06,18,15.00
2015,07,05,06,19,15.00
2015,07,05,06,20,15.00
2015,07,05,06,21,15.00
2015,07,05,06,22,15.00
2015,07,05,06,23,15.00
2015,07,05,06,24,15.00
2015,07,05,06,25,15.00
2015,07,05,06,26,15.00
2015,07,05,06,27,15.00
2015,07,05,06,28,15.00
2015,07,05,06,29,15.00
2015,07,05,06,30,15.00
2015,07,05,06,31,15.00
2015,07,05,06,32,15.10
2015,07,05,06,33,15.10
2015,07,05,06,34,15.10
2015,07,05,06,35,15.10
2015,07,05,06,36,15.20
2015,07,05,06,37,15.20
2015,07,05,06,38,15.20
2015,07,05,06,39,15.30
2015,07,05,06,40,15.30
2015,07,05,06,41,15.30
2015,07,05,06,42,15.40
2015,07,05,06,43,15.40
2015,07,05,06,44,15.40
2015,07,05,06,45,15.50
2015,07,05,06,46,15.60
2015,07,05,06,47,15.60
2015,07,05,06,48,15.60
2015,07,05,06,49,15.60
2015,07,05,06,50,15.60
2015,07,05,06,51,15.60
2015,07,05,06,52,15.60
2015,07,05,06,53,15.60
2015,07,05,06,54,15.60
2015,07,05,06,55,15.60
2015,07,05,06,56,15.50
2015,07,05,06,57,15.50
2015,07,05,06,58,15.50
2015,07,05,06,59,15.50
2015,07,05,07,00,15.50
2015,07,05,07,01,15.50
2015,07,05,07,02,15.60
2015,07,05,07,03,15.60
2015,07,05,07,04,15.60
2015,07,05,07,05,15.60
2015,07,05,07,06,15.70
2015,07,05,07,07,15.70
2015,07,05,07,08,15.80
2015,07,05,07,09,15.80
2015,07,05,07,10,15.80
2015,07,05,07,11,15.90
2015,07,05,07,12,15.90
2015,07,05,07,13,15.90
2015,07,05,07,14,15.90
2015,07,05,07,15,16.00
2015,07,05,07,16,16.00
2015,07,05,07,17,16.00
2015,07,05,07,18,16.10
2015,07,05,07,19,16.10
2015,07,05,07,20,16.20
2015,07,05,07,21,16.20
2015,07,05,07,22,16.20
2015,07,05,07,23,16.30
2015,07,05,07,24,16.30
2015,07,05,07,25,16.30
2015,07,05,07,26,16.30
2015,07,05,07,27,16.40
2015,07,05,07,28,16.40
2015,07,05,07,29,16.40
2015,07,05,07,30,16.40
2015,07,05,07,31,16.50
2015,07,05,07,32,16.50
2015,07,05,07,33,16.60
2015,07,05,07,34,16.60
2015,07,05,07,35,16.70
2015,07,05,07,36,16.70
2015,07,05,07,37,16.80
2015,07,05,07,38,16.90
2015,07,05,07,39,16.90
2015,07,05,07,40,17.00
2015,07,05,07,41,17.10
2015,07,05,07,42,17.10
2015,07,05,07,43,17.20
2015,07,05,07,44,17.20
2015,07,05,07,45,17.30
2015,07,05,07,46,17.30
2015,07,05,07,47,17.30
2015,07,05,07,48,17.30
2015,07,05,07,49,17.40
2015,07,05,07,50,17.40
2015,07,05,07,51,17.40
2015,07,05,07,52,17.50
2015,07,05,07,53,17.60
2015,07,05,07,54,17.60
2015,07,05,07,55,17.70
2015,07,05,07,56,17.70
2015,07,05,07,57,17.80
2015,07,05,07,58,17.80
2015,07,05,07,59,17.80
2015,07,05,08,00,17.90
2015,07,05,08,01,18.00
2015,07,05,08,02,18.00
2015,07,05,08,03,18.10
2015,07,05,08,04,18.20
2015,07,05,08,05,18.20
2015,07,05,08,06,18.30
2015,07,05,08,07,18.40
2015,07,05,08,08,18.50
2015,07,05,08,09,18.60
2015,07,05,08,10,18.70
2015,07,05,08,11,18.70
2015,07,05,08,12,18.80
2015,07,05,08,13,18.90
2015,07,05,08,14,18.90
2015,07,05,08,15,19.00
2015,07,05,08,16,19.10
2015,07,05,08,17,19.10
2015,07,05,08,18,19.20
2015,07,05,08,19,19.20
2015,07,05,08,20,19.30
2015,07,05,08,21,19.30
2015,07,05,08,22,19.40
2015,07,05,08,23,19.40
2015,07,05,08,24,19.50
2015,07,05,08,25,19.50
2015,07,05,08,26,19.50
2015,07,05,08,27,19.60
2015,07,05,08,28,19.60
2015,07,05,08,29,19.60
2015,07,05,08,30,19.70
2015,07,05,08,31,19.70
2015,07,05,08,32,19.70
2015,07,05,08,33,19.80
2015,07,05,08,34,19.90
2015,07,05,08,35,19.90
2015,07,05,08,36,20.00
2015,07,05,08,37,20.10
2015,07,05,08,38,20.20
2015,07,05,08,39,20.30
2015,07,05,08,40,20.30
2015,07,05,08,41,20.40
2015,07,05,08,42,20.50
2015,07,05,08,43,20.50
2015,07,05,08,44,20.60
2015,07,05,08,45,20.70
2015,07,05,08,46,20.80
2015,07,05,08,47,20.80
2015,07,05,08,48,20.90
2015,07,05,08,49,21.00
2015,07,05,08,50,21.00
2015,07,05,08,51,21.10
2015,07,05,08,52,21.20
2015,07,05,08,53,21.20
2015,07,05,08,54,21.30
2015,07,05,08,55,21.30
2015,07,05,08,56,21.40
2015,07,05,08,57,21.40
2015,07,05,08,58,21.50
2015,07,05,08,59,21.60
2015,07,05,09,00,21.70
2015,07,05,09,01,21.80
2015,07,05,09,02,21.80
2015,07,05,09,03,21.90
2015,07,05,09,04,21.90
2015,07,05,09,05,21.90
2015,07,05,09,06,22.00
2015,07,05,09,07,22.00
2015,07,05,09,08,22.00
2015,07,05,09,09,22.00
2015,07,05,09,10,22.00
2015,07,05,09,11,22.00
2015,07,05,09,12,22.10
2015,07,05,09,13,22.10
2015,07,05,09,14,22.10
2015,07,05,09,15,22.10
2015,07,05,09,16,22.10
2015,07,05,09,17,22.20
2015,07,05,09,18,22.20
2015,07,05,09,19,22.20
2015,07,05,09,20,22.30
2015,07,05,09,21,22.30
2015,07,05,09,22,22.40
2015,07,05,09,23,22.50
2015,07,05,09,24,22.50
2015,07,05,09,25,22.60
2015,07,05,09,26,22.70
2015,07,05,09,27,22.70
2015,07,05,09,28,22.80
2015,07,05,09,29,22.80
2015,07,05,09,30,22.90
2015,07,05,09,31,22.90
2015,07,05,09,32,22.90
2015,07,05,09,33,23.00
2015,07,05,09,34,23.00
2015,07,05,09,35,23.00
2015,07,05,09,36,23.10
2015,07,05,09,37,23.10
2015,07,05,09,38,23.10
2015,07,05,09,39,23.20
2015,07,05,09,40,23.20
2015,07,05,09,41,23.20
2015,07,05,09,42,23.20
2015,07,05,09,43,23.30
2015,07,05,09,44,23.30
2015,07,05,09,45,23.30
2015,07,05,09,46,23.30
2015,07,05,09,47,23.30
2015,07,05,09,48,23.30
2015,07,05,09,49,23.30
2015,07,05,09,50,23.30
2015,07,05,09,51,23.40
2015,07,05,09,52,23.40
2015,07,05,09,53,23.40
2015,07,05,09,54,23.40
2015,07,05,09,55,23.40
2015,07,05,09,56,23.40
2015,07,05,09,57,23.40
2015,07,05,09,58,23.30
2015,07,05,09,59,23.40
2015,07,05,10,00,23.40
2015,07,05,10,01,23.40
2015,07,05,10,02,23.40
2015,07,05,10,03,23.30
2015,07,05,10,04,23.30
2015,07,05,10,05,23.30
2015,07,05,10,06,23.30
2015,07,05,10,07,23.30
2015,07,05,10,08,23.30
2015,07,05,10,09,23.30
2015,07,05,10,10,23.30
2015,07,05,10,11,23.30
2015,07,05,10,12,23.20
2015,07,05,10,13,23.20
2015,07,05,10,14,23.20
2015,07,05,10,15,23.20
2015,07,05,10,16,23.20
2015,07,05,10,17,23.20
2015,07,05,10,18,23.20
2015,07,05,10,19,23.20
2015,07,05,10,20,23.20
2015,07,05,10,21,23.20
2015,07,05,10,22,23.20
2015,07,05,10,23,23.20
2015,07,05,10,24,23.20
2015,07,05,10,25,23.20
2015,07,05,10,26,23.20
2015,07,05,10,27,23.10
2015,07,05,10,28,23.10
2015,07,05,10,29,23.10
2015,07,05,10,30,23.10
2015,07,05,10,31,23.10
2015,07,05,10,32,23.10
2015,07,05,10,33,23.10
2015,07,05,10,34,23.20
2015,07,05,10,35,23.20
2015,07,05,10,36,23.20
2015,07,05,10,37,23.20
2015,07,05,10,38,23.30
2015,07,05,10,39,23.30
2015,07,05,10,40,23.30
2015,07,05,10,41,23.30
2015,07,05,10,42,23.30
2015,07,05,10,43,23.30
2015,07,05,10,44,23.30
2015,07,05,10,45,23.40
2015,07,05,10,46,23.40
2015,07,05,10,47,23.40
2015,07,05,10,48,23.40
2015,07,05,10,49,23.50
2015,07,05,10,50,23.50
2015,07,05,10,51,23.60
2015,07,05,10,52,23.60
2015,07,05,10,53,23.70
2015,07,05,10,54,23.80
2015,07,05,10,55,23.80
2015,07,05,10,56,23.80
2015,07,05,10,57,23.90
2015,07,05,10,58,23.90
2015,07,05,10,59,23.90
2015,07,05,11,00,23.90
2015,07,05,11,01,24.00
2015,07,05,11,02,24.00
2015,07,05,11,03,24.10
2015,07,05,11,04,24.10
2015,07,05,11,05,24.10
2015,07,05,11,06,24.20
2015,07,05,11,07,24.20
2015,07,05,11,08,24.30
2015,07,05,11,09,24.30
2015,07,05,11,10,24.30
2015,07,05,11,11,24.30
2015,07,05,11,12,24.30
2015,07,05,11,13,24.40
2015,07,05,11,14,24.40
2015,07,05,11,15,24.40
2015,07,05,11,16,24.40
2015,07,05,11,17,24.40
2015,07,05,11,18,24.50
2015,07,05,11,19,24.50
2015,07,05,11,20,24.50
2015,07,05,11,21,24.60
2015,07,05,11,22,24.70
2015,07,05,11,23,24.70
2015,07,05,11,24,24.80
2015,07,05,11,25,24.80
2015,07,05,11,26,24.90
2015,07,05,11,27,24.90
2015,07,05,11,28,24.90
2015,07,05,11,29,24.90
2015,07,05,11,30,24.90
2015,07,05,11,31,24.90
2015,07,05,11,32,25.00
2015,07,05,11,33,25.00
2015,07,05,11,34,25.00
2015,07,05,11,35,25.10
2015,07,05,11,36,25.10
2015,07,05,11,37,25.10
2015,07,05,11,38,25.20
2015,07,05,11,39,25.20
2015,07,05,11,40,25.30
2015,07,05,11,41,25.30
2015,07,05,11,42,25.30
2015,07,05,11,43,25.30
2015,07,05,11,44,25.30
2015,07,05,11,45,25.30
2015,07,05,11,46,25.30
2015,07,05,11,47,25.30
2015,07,05,11,48,25.30
2015,07,05,11,49,25.40
2015,07,05,11,50,25.40
2015,07,05,11,51,25.40
2015,07,05,11,52,25.40
2015,07,05,11,53,25.50
2015,07,05,11,54,25.50
2015,07,05,11,55,25.60
2015,07,05,11,56,25.60
2015,07,05,11,57,25.60
2015,07,05,11,58,25.70
2015,07,05,11,59,25.70
2015,07,05,12,00,25.80
2015,07,05,12,01,25.80
2015,07,05,12,02,25.90
2015,07,05,12,03,25.90
2015,07,05,12,04,26.00
2015,07,05,12,05,26.00
2015,07,05,12,06,26.10
2015,07,05,12,07,26.20
2015,07,05,12,08,26.20
2015,07,05,12,09,26.20
2015,07,05,12,10,26.20
2015,07,05,12,11,26.20
2015,07,05,12,12,26.30
2015,07,05,12,13,26.30
2015,07,05,12,14,26.30
2015,07,05,12,15,26.30
2015,07,05,12,16,26.40
2015,07,05,12,17,26.40
2015,07,05,12,18,26.50
2015,07,05,12,19,26.60
2015,07,05,12,20,26.60
2015,07,05,12,21,26.60
2015,07,05,12,22,26.70
2015,07,05,12,23,26.70
2015,07,05,12,24,26.70
2015,07,05,12,25,26.70
2015,07,05,12,26,26.70
2015,07,05,12,27,26.70
2015,07,05,12,28,26.80
2015,07,05,12,29,26.80
2015,07,05,12,30,26.90
2015,07,05,12,31,26.90
2015,07,05,12,32,27.00
2015,07,05,12,33,27.00
2015,07,05,12,34,27.10
2015,07,05,12,35,27.10
2015,07,05,12,36,27.10
2015,07,05,12,37,27.10
2015,07,05,12,38,27.10
2015,07,05,12,39,27.10
2015,07,05,12,40,27.20
2015,07,05,12,41,27.20
2015,07,05,12,42,27.20
2015,07,05,12,43,27.20
2015,07,05,12,44,27.30
2015,07,05,12,45,27.30
2015,07,05,12,46,27.40
2015,07,05,12,47,27.40
2015,07,05,12,48,27.50
2015,07,05,12,49,27.50
2015,07,05,12,50,27.50
2015,07,05,12,51,27.60
2015,07,05,12,52,27.60
2015,07,05,12,53,27.60
2015,07,05,12,54,27.70
2015,07,05,12,55,27.70
2015,07,05,12,56,27.70
2015,07,05,12,57,27.70
2015,07,05,12,58,27.70
2015,07,05,12,59,27.70
2015,07,05,13,00,27.70
2015,07,05,13,01,27.80
2015,07,05,13,02,27.80
2015,07,05,13,03,27.80
2015,07,05,13,04,27.80
2015,07,05,13,05,27.80
2015,07,05,13,06,27.90
2015,07,05,13,07,27.90
2015,07,05,13,08,28.00
2015,07,05,13,09,28.00
2015,07,05,13,10,28.10
2015,07,05,13,11,28.20
2015,07,05,13,12,28.20
2015,07,05,13,13,28.30
2015,07,05,13,14,28.30
2015,07,05,13,15,28.40
2015,07,05,13,16,28.40
2015,07,05,13,17,28.40
2015,07,05,13,18,28.40
2015,07,05,13,19,28.40
2015,07,05,13,20,28.40
2015,07,05,13,21,28.40
2015,07,05,13,22,28.40
2015,07,05,13,23,28.40
2015,07,05,13,24,28.40
2015,07,05,13,25,28.40
2015,07,05,13,26,28.40
2015,07,05,13,27,28.40
2015,07,05,13,28,28.40
2015,07,05,13,29,28.50
2015,07,05,13,30,28.50
2015,07,05,13,31,28.60
2015,07,05,13,32,28.70
2015,07,05,13,33,28.70
2015,07,05,13,34,28.70
2015,07,05,13,35,28.80
2015,07,05,13,36,28.80
2015,07,05,13,37,28.80
2015,07,05,13,38,28.90
2015,07,05,13,39,28.90
2015,07,05,13,40,28.90
2015,07,05,13,41,29.00
2015,07,05,13,42,29.10
2015,07,05,13,43,29.10
2015,07,05,13,44,29.10
2015,07,05,13,45,29.10
2015,07,05,13,46,29.10
2015,07,05,13,47,29.10
2015,07,05,13,48,29.20
2015,07,05,13,49,29.20
2015,07,05,13,50,29.20
2015,07,05,13,51,29.20
2015,07,05,13,52,29.20
2015,07,05,13,53,29.30
2015,07,05,13,54,29.40
2015,07,05,13,55,29.50
2015,07,05,13,56,29.60
2015,07,05,13,57,29.70
2015,07,05,13,58,29.80
2015,07,05,13,59,30.00
2015,07,05,14,00,30.00
2015,07,05,14,01,30.10
2015,07,05,14,02,30.10
2015,07,05,14,03,30.10
2015,07,05,14,04,30.10
2015,07,05,14,05,30.20
2015,07,05,14,06,30.30
2015,07,05,14,07,30.30
2015,07,05,14,08,30.40
2015,07,05,14,09,30.40
2015,07,05,14,10,30.40
2015,07,05,14,11,30.50
2015,07,05,14,12,30.50
2015,07,05,14,13,30.50
2015,07,05,14,14,30.60
2015,07,05,14,15,30.60
2015,07,05,14,16,30.70
2015,07,05,14,17,30.80
2015,07,05,14,18,30.80
2015,07,05,14,19,30.80
2015,07,05,14,20,30.80
2015,07,05,14,21,30.80
2015,07,05,14,22,30.80
2015,07,05,14,23,30.80
2015,07,05,14,24,30.90
2015,07,05,14,25,30.90
2015,07,05,14,26,30.90
2015,07,05,14,27,30.90
2015,07,05,14,28,31.00
2015,07,05,14,29,31.10
2015,07,05,14,30,31.10
2015,07,05,14,31,31.20
2015,07,05,14,32,31.20
2015,07,05,14,33,31.30
2015,07,05,14,34,31.30
2015,07,05,14,35,31.30
2015,07,05,14,36,31.30
2015,07,05,14,37,31.30
2015,07,05,14,38,31.20
2015,07,05,14,39,31.20
2015,07,05,14,40,31.10
2015,07,05,14,41,31.10
2015,07,05,14,42,31.20
2015,07,05,14,43,31.20
2015,07,05,14,44,31.30
2015,07,05,14,45,31.30
2015,07,05,14,46,31.30
2015,07,05,14,47,31.30
2015,07,05,14,48,31.40
2015,07,05,14,49,31.40
2015,07,05,14,50,31.40
2015,07,05,14,51,31.40
2015,07,05,14,52,31.40
2015,07,05,14,53,31.50
2015,07,05,14,54,31.60
2015,07,05,14,55,31.60
2015,07,05,14,56,31.60
2015,07,05,14,57,31.70
2015,07,05,14,58,31.70
2015,07,05,14,59,31.70
2015,07,05,15,00,31.70
2015,07,05,15,01,31.80
2015,07,05,15,02,31.80
2015,07,05,15,03,31.70
2015,07,05,15,04,31.70
2015,07,05,15,05,31.70
2015,07,05,15,06,31.70
2015,07,05,15,07,31.70
2015,07,05,15,08,31.70
2015,07,05,15,09,31.70
2015,07,05,15,10,31.80
2015,07,05,15,11,31.80
2015,07,05,15,12,31.80
2015,07,05,15,13,31.70
2015,07,05,15,14,31.80
2015,07,05,15,15,31.80
2015,07,05,15,16,31.90
2015,07,05,15,17,32.00
2015,07,05,15,18,32.00
2015,07,05,15,19,32.10
2015,07,05,15,20,32.10
2015,07,05,15,21,32.20
2015,07,05,15,22,32.20
2015,07,05,15,23,32.20
2015,07,05,15,24,32.20
2015,07,05,15,25,32.20
2015,07,05,15,26,32.10
2015,07,05,15,27,32.10
2015,07,05,15,28,32.10
2015,07,05,15,29,32.10
2015,07,05,15,30,32.10
2015,07,05,15,31,32.20
2015,07,05,15,32,32.20
2015,07,05,15,33,32.30
2015,07,05,15,34,32.30
2015,07,05,15,35,32.30
2015,07,05,15,36,32.40
2015,07,05,15,37,32.30
2015,07,05,15,38,32.30
2015,07,05,15,39,32.30
2015,07,05,15,40,32.20
2015,07,05,15,41,32.20
2015,07,05,15,42,32.20
2015,07,05,15,43,32.20
2015,07,05,15,44,32.20
2015,07,05,15,45,32.10
2015,07,05,15,46,32.10
2015,07,05,15,47,32.00
2015,07,05,15,48,31.90
2015,07,05,15,49,31.90
2015,07,05,15,50,31.90
2015,07,05,15,51,31.90
2015,07,05,15,52,31.90
2015,07,05,15,53,32.00
2015,07,05,15,54,32.10
2015,07,05,15,55,32.10
2015,07,05,15,56,32.20
2015,07,05,15,57,32.20
2015,07,05,15,58,32.20
2015,07,05,15,59,32.30
2015,07,05,16,00,32.30
2015,07,05,16,01,32.30
2015,07,05,16,02,32.30
2015,07,05,16,03,32.40
2015,07,05,16,04,32.30
2015,07,05,16,05,32.30
2015,07,05,16,06,32.30
2015,07,05,16,07,32.30
2015,07,05,16,08,32.30
2015,07,05,16,09,32.30
2015,07,05,16,10,32.40
2015,07,05,16,11,32.40
2015,07,05,16,12,32.40
2015,07,05,16,13,32.40
2015,07,05,16,14,32.40
2015,07,05,16,15,32.40
2015,07,05,16,16,32.40
2015,07,05,16,17,32.40
2015,07,05,16,18,32.40
2015,07,05,16,19,32.50
2015,07,05,16,20,32.50
2015,07,05,16,21,32.60
2015,07,05,16,22,32.60
2015,07,05,16,23,32.60
2015,07,05,16,24,32.60
2015,07,05,16,25,32.60
2015,07,05,16,26,32.60
2015,07,05,16,27,32.60
2015,07,05,16,28,32.60
2015,07,05,16,29,32.60
2015,07,05,16,30,32.60
2015,07,05,16,31,32.60
2015,07,05,16,32,32.60
2015,07,05,16,33,32.50
2015,07,05,16,34,32.50
2015,07,05,16,35,32.50
2015,07,05,16,36,32.40
2015,07,05,16,37,32.30
2015,07,05,16,38,32.30
2015,07,05,16,39,32.30
2015,07,05,16,40,32.30
2015,07,05,16,41,32.30
2015,07,05,16,42,32.40
2015,07,05,16,43,32.40
2015,07,05,16,44,32.40
2015,07,05,16,45,32.50
2015,07,05,16,46,32.50
2015,07,05,16,47,32.60
2015,07,05,16,48,32.60
2015,07,05,16,49,32.70
2015,07,05,16,50,32.70
2015,07,05,16,51,32.70
2015,07,05,16,52,32.70
2015,07,05,16,53,32.70
2015,07,05,16,54,32.60
2015,07,05,16,55,32.60
2015,07,05,16,56,32.50
2015,07,05,16,57,32.40
2015,07,05,16,58,32.40
2015,07,05,16,59,32.40
2015,07,05,17,00,32.40
2015,07,05,17,01,32.50
2015,07,05,17,02,32.50
2015,07,05,17,03,32.50
2015,07,05,17,04,32.50
2015,07,05,17,05,32.60
2015,07,05,17,06,32.50
2015,07,05,17,07,32.50
2015,07,05,17,08,32.50
2015,07,05,17,09,32.40
2015,07,05,17,10,32.40
2015,07,05,17,11,32.40
2015,07,05,17,12,32.40
2015,07,05,17,13,32.30
2015,07,05,17,14,32.30
2015,07,05,17,15,32.30
2015,07,05,17,16,32.20
2015,07,05,17,17,32.20
2015,07,05,17,18,32.20
2015,07,05,17,19,32.20
2015,07,05,17,20,32.10
2015,07,05,17,21,32.20
2015,07,05,17,22,32.20